DW6658 Weather Reports


Display with metric or nautical units.
time (UTC)temp
F
wind
direction
speed
MPH
gust
MPH
rain 1hr
in
rain 24hr
in
rain mn
in
humidity
%
barometer
mb
20260504044555 46 0 0.0 0.0 0.00 0.00 0.00 69 1003.3
20260504043051 47 0 0.0 0.0 0.00 0.00 0.00 66 1003.6
20260504041559 48 0 0.0 0.0 0.00 0.00 0.00 63 1003.6
20260504040052 50 0 0.0 2.0 0.00 0.00 0.00 59 1003.9
20260504034555 49 0 0.0 1.0 0.00 0.00 0.00 62 1004.1
20260504033057 50 0 0.0 0.0 0.00 0.00 0.00 60 1004.3
20260504031605 51 0 0.0 0.0 0.00 0.00 0.00 56 1004.5
20260504030112 52 0 0.0 0.0 0.00 0.00 0.00 54 1004.8
20260504024551 53 0 0.0 1.0 0.00 0.00 0.00 52 1004.8
20260504023050 54 0 0.0 1.0 0.00 0.00 0.00 49 1004.8
20260504021549 56 0 0.0 0.0 0.00 0.00 0.00 47 1004.6
20260504020050 57 0 0.0 0.0 0.00 0.00 0.00 44 1004.8
20260504014550 60 0 0.0 0.0 0.00 0.00 0.00 39 1004.6
20260504013050 63 0 0.0 0.0 0.00 0.00 0.00 32 1004.7
20260504011548 65 0 0.0 1.0 0.00 0.00 0.00 30 1004.7
20260504010051 66 0 0.0 6.0 0.00 0.00 0.00 29 1004.8
20260504004549 67 273 1.0 5.0 0.00 0.00 0.00 29 1004.7
20260504003048 68 0 2.0 7.0 0.00 0.00 0.00 26 1005.0
20260504001550 70 286 5.0 11.0 0.00 0.00 0.00 24 1005.0
20260504000131 71 252 4.0 12.0 0.00 0.00 0.00 24 1004.9
20260503234550 71 288 3.0 14.0 0.00 0.00 0.00 25 1005.1
20260503233054 71 341 7.0 16.0 0.00 0.00 0.00 25 1005.0
20260503231554 71 269 5.0 17.0 0.00 0.00 0.00 25 1005.2
20260503230059 71 264 7.0 14.0 0.00 0.00 0.00 27 1005.2
20260503224556 71 300 6.0 13.0 0.00 0.00 0.00 27 1005.3
20260503223057 71 312 4.0 14.0 0.00 0.00 0.00 25 1005.4
20260503221554 72 288 4.0 15.0 0.00 0.00 0.00 24 1005.4
20260503220056 71 263 5.0 16.0 0.00 0.00 0.00 24 1005.2
20260503214555 71 336 5.0 16.0 0.00 0.00 0.00 25 1005.3
20260503213054 71 312 4.0 17.0 0.00 0.00 0.00 23 1005.3
20260503211601 71 4 6.0 13.0 0.00 0.00 0.00 24 1005.3
20260503210050 71 275 4.0 14.0 0.00 0.00 0.00 25 1005.3
20260503204556 71 329 6.0 14.0 0.00 0.00 0.00 28 1005.5
20260503203108 71 0 5.0 11.0 0.00 0.00 0.00 30 1005.4
20260503201551 72 310 3.0 9.0 0.00 0.00 0.00 32 1005.7
20260503200055 70 342 10.0 19.0 0.00 0.00 0.00 33 1005.9
20260503194555 70 302 4.0 12.0 0.00 0.00 0.00 33 1006.0
20260503193056 70 342 4.0 12.0 0.00 0.00 0.00 34 1005.6
20260503191550 70 263 5.0 17.0 0.00 0.00 0.00 35 1006.0
20260503190050 70 317 5.0 15.0 0.00 0.00 0.00 35 1006.1
20260503184611 69 360 5.0 15.0 0.00 0.00 0.00 34 1006.0
20260503183100 70 341 3.0 13.0 0.00 0.00 0.00 34 1006.1
20260503181557 69 359 3.0 19.0 0.00 0.00 0.00 33 1006.2
20260503180057 68 263 5.0 15.0 0.00 0.00 0.00 35 1006.4
20260503174553 68 341 4.0 14.0 0.00 0.00 0.00 37 1006.4
20260503173051 68 286 9.0 16.0 0.00 0.00 0.00 37 1006.4
20260503171609 66 77 1.0 19.0 0.00 0.00 0.00 41 1006.6
20260503090107 57 153 6.0 17.0 0.00 0.00 0.00 45 1006.2
20260503081601 53 8 1.0 5.0 0.00 0.00 0.00 62 1006.9
20260503080111 52 174 0.0 4.0 0.00 0.00 0.00 64 1007.1
20260503071606 54 0 0.0 3.0 0.00 0.00 0.00 55 1008.5
20260503054600 56 0 0.0 5.0 0.00 0.00 0.00 53 1009.3
20260503053051 56 0 0.0 5.0 0.00 0.00 0.00 52 1009.0